Location: Newark
(51.0500°N, 12.4500°E)
Time: 02:16:40
(UTC+00:00)

Tiros 1 - Pass Details

Date: 23 February 2020
Orbit: 630 x 664 km, 48.4° (Epoch: 06 April)

Event Time Altitude Azimuth Distance (km) Brightness Sun altitude
Rises 01:25:13 0° 225° (SW) 2,924 - -42.1°
Reaches altitude 10° 01:27:43 10° 216° (SW) 2,013 - -41.8°
Maximum altitude 01:31:49 32° 153° (SSE) 1,085 - -41.4°
Drops below altitude 10° 01:35:55 10° 90° (E) 2,010 - -40.9°
Exits shadow 01:37:05 - 85° (E) 2,426 10.6 -40.8°
Sets 01:38:25 0° 81° (E) 2,919 11.1 -40.6°
